Torna al catalogo

QIANFAN-192

AttivoComunicazioniPO
NORAD 69410·PAYLOAD·🇨🇳 China

Lanciato Jun 5, 2026 da Wenchang Space Launch Site

Loading…

Prossimi Passaggi (prossime 24 ore)

TLE

AggiornatoSource: Space-Track

Epoca: Sep 14, 2026, 22:11 UTC

1 69410U 26125K   26257.92476578  .00000024  00000-0  18278-4 0  9992
2 69410  88.9888 270.8878 0002041 106.5198 253.6177 13.51030140 14068

Traccia QIANFAN-192 in tempo reale con AllMySat

Download on the App Store